Regional Weather Roundup
Issued by NWS Kansas City/Pleasant Hill, MO

Home | Current Version | Previous Version | Text Only | Print | Product List | Glossary On
Versions: 1 2 3 4 5 6 7 8 9 10 11 12 13 14 15 16 17 18 19 20 21 22 23 24 25 26 27 28 29 30 31 32 33 34 35 36 37 38 39 40 41 42 43 44 45 46 47 48 49 50
000
ASUS43 KEAX 251411
RWREAX

WEATHER ROUNDUP FOR EASTERN KANSAS AND NORTHWEST MISSOURI
NATIONAL WEATHER SERVICE KANSAS CITY/PLEASANT HILL MO
800 AM CST SUN JAN 25 2015

KSZ040-057-103>105-MOZ028-029-037-043-251500-
...KANSAS CITY METROPOLITAN AREA...

CITY           SKY/WX    TMP DP  RH WIND       PRES   REMARKS
K.C. INTL      DRIZZLE   37  34  89 NW17G28   29.70R FOG     WCI  27
K.C. DOWNTOWN  CLOUDY    39  35  86 NW15G25   29.70R WCI  31
LEES SUMMIT    LGT RAIN  39  35  86 W16G23    29.69R WCI  30
OLATHE - IXD   LGT RAIN  37  34  89 NW22G33   29.73R WCI  26
OLATHE - OJC   LGT RAIN  37  35  92 NW20G30   29.71R FOG     WCI  27
LAWRENCE       CLOUDY    38  32  79 NW18G26   29.75R WCI  28

$$

MOZ001>008-011>017-020>025-030>033-038>040-044>046-053-054-251500-
...NORTHERN AND CENTRAL MISSOURI...

CITY           SKY/WX    TMP DP  RH WIND       PRES   REMARKS
ST. JOSEPH     CLOUDY    36  32  85 NW26G35   29.74R WCI  24
WARRENSBURG    CLOUDY    43  36  75 NW15G23   29.65R
WHITEMAN AFB   CLOUDY    44  38  79 NW15G23   29.63R
CLINTON        CLOUDY    45  43  93 W14       29.66S
SEDALIA        CLOUDY    44  37  76 NW14      29.63S
WARSAW         NOT AVBL
MARSHALL       CLOUDY    45  41  87 NW12G23   29.63
CHILLICOTHE      N/A     41  38  89 NW13G20   29.62S WCI  34
MOBERLY        CLOUDY    43  37  81 W10       29.59
KIRKSVILLE     CLOUDY    41  41 100 NW7       29.57R FOG

$$

MOZ041-047>049-056>058-063>065-088>090-097-251500-
...EASTERN AND SOUTHERN MISSOURI...

CITY           SKY/WX    TMP DP  RH WIND       PRES   REMARKS
ST. LOUIS INTL CLOUDY    46  42  86 CALM      29.58F
SPIRIT OF STL  LGT RAIN  45  41  86 SW6       29.57F
COLUMBIA       MOCLDY    43  41  93 W13       29.59S
JEFFERSON CITY CLOUDY    44  39  82 NW8       29.61S
MEXICO         CLOUDY   N/A N/A N/A W8        29.57S
HANNIBAL       CLOUDY    43  39  87 CALM      29.58R FOG
ROLLA          CLOUDY    45  39  79 W12G21    29.58F
LEBANON        MOCLDY    43  39  87 W10       29.64S
OSAGE BEACH    CLOUDY    45  39  81 W7        29.62R
SPRINGFIELD    CLOUDY    46  37  71 W15G22    29.67R
BRANSON        CLOUDY    45  37  76 W9        29.70S
JOPLIN         CLOUDY    47  34  60 W18G25    29.74R
WEST PLAINS    CLOUDY    43  40  89 SW8       29.65F

$$

IAZ060-094-KSZ022-034>040-054-083-096-NEZ052-066-093-251500-
...KANSAS...SOUTHEAST NEBRASKA AND IOWA...

CITY           SKY/WX    TMP DP  RH WIND       PRES   REMARKS
TOPEKA         CLOUDY    39  31  72 NW25G33   29.79R WCI  28
MANHATTAN      CLOUDY    42  32  67 NW12G22   29.85R
EMPORIA        CLOUDY    42  33  70 NW26G35   29.80R WCI  32
CHANUTE        CLOUDY    46  34  62 NW25G40   29.77R
WICHITA        MOCLDY    47  30  51 NW22G31   29.90R
OMAHA          CLOUDY    36  33  89 N24G33    29.81R WCI  24
LINCOLN        CLOUDY    36  30  79 N22       29.87R WCI  25
FALLS CITY     CLOUDY    36  31  82 NW20G32   29.76R WCI  25
LAMONI         MIX PCPN  35  33  92 N15G22    29.64R WCI  25
DES MOINES     LGT SNOW  35  32  88 N16       29.70R VSB 1   WCI  25

$$



USA.gov is the U.S. government's official web portal to all federal, state and local government web resources and services.